Weather History for KMMT - September, 2013

Change the Weather History Date:

Wednesday, September 11, 2013

  Actual Average Record
Temperature  
Mean Temperature 76 °F -  
Max Temperature 90 °F 82 °F 96 °F (2007)
Min Temperature 62 °F 63 °F 55 °F (1998)
Cooling Degree Days 11    
Growing Degree Days 26 (Base 50)    
Moisture  
Dew Point 66 °F    
Average Humidity 89    
Maximum Humidity 100    
Minimum Humidity 39    
Precipitation  
Precipitation 0.00 in - - ()
Sea Level Pressure  
Sea Level Pressure 30.18 in    
Wind  
Wind Speed 1 mph (NNE)    
Max Wind Speed 8 mph    
Max Gust Speed -    
Visibility 5 miles    
Events Fog    
Averages and records for this station are not official NWS values.
T = Trace of Precipitation, MM = Missing Value Source: NWS Daily Summary

Daily Weather History Graph

Daily Weather History Graph

Search for Another Location

Airport or City:

Trip Planner

Search our weather history database for the weather conditions in past years. The results will help you decide how hot, cold, wet, or windy it might be!

Date:

Astronomy

Sep. 11, 2013 Rise Set
Actual Time 7:03 AM EDT 7:34 PM EDT
Civil Twilight 6:38 AM EDT 8:00 PM EDT
Nautical Twilight 6:09 AM EDT 8:29 PM EDT
Astronomical Twilight 5:39 AM EDT 8:59 PM EDT
Moon 1:12 PM EDT (9/11) 11:47 PM EDT (9/11)
Length of Visible Light 13h 21m
Length of Day
12h 31m
Waxing Crescent, 38% of the Moon is Illuminated
Sep 11
Waxing Crescent
Sep 12
First Quarter
Sep 19
Full
Sep 26
Last Quarter
Oct 4
New

Hourly Weather History & Observations

Time (EDT) Temp. Heat Index Dew Point Humidity Pressure Visibility Wind Dir Wind Speed Gust Speed Precip Events Conditions
12:58 AM 68.4 °F - 68.2 °F 99% 30.22 in 9.0 mi Calm Calm - N/A   Clear
1:58 AM 66.7 °F - 66.7 °F 100% 30.21 in 3.0 mi Calm Calm - N/A   Clear
2:18 AM 66.2 °F - 66.2 °F 100% 30.21 in 1.5 mi Calm Calm - N/A   Clear
2:28 AM 66.2 °F - 66.2 °F 100% 30.20 in 1.8 mi Calm Calm - N/A   Clear
2:38 AM 66.2 °F - 66.2 °F 100% 30.20 in 2.5 mi Calm Calm - N/A   Clear
2:58 AM 66.4 °F - 66.4 °F 100% 30.20 in 1.8 mi Calm Calm - N/A   Clear
3:08 AM 66.2 °F - 66.2 °F 100% 30.19 in 1.8 mi Calm Calm - N/A   Clear
3:18 AM 66.2 °F - 66.2 °F 100% 30.19 in 2.5 mi Calm Calm - N/A   Clear
3:28 AM 66.2 °F - 66.2 °F 100% 30.19 in 2.5 mi Calm Calm - N/A   Clear
3:38 AM 64.4 °F - 64.4 °F 100% 30.18 in 0.8 mi North 2.3 mph - N/A   Clear
3:48 AM 64.4 °F - 64.4 °F 100% 30.19 in 1.8 mi NNW 1.2 mph - N/A   Clear
3:58 AM 64.0 °F - 64.0 °F 100% 30.18 in 3.0 mi NNW 2.3 mph - N/A   Clear
4:08 AM 64.4 °F - 64.4 °F 100% 30.18 in 0.8 mi Calm Calm - N/A   Clear
4:18 AM 64.4 °F - 64.4 °F 100% 30.19 in 2.0 mi Calm Calm - N/A   Clear
4:28 AM 64.4 °F - 64.4 °F 100% 30.19 in 0.5 mi NNW 3.5 mph - N/A Fog Fog
4:38 AM 64.4 °F - 64.4 °F 100% 30.19 in 2.0 mi NW 4.6 mph - N/A   Clear
4:48 AM 64.4 °F - 64.4 °F 100% 30.19 in 4.0 mi Calm Calm - N/A   Clear
4:58 AM 64.2 °F - 64.2 °F 100% 30.19 in 4.0 mi Calm Calm - N/A   Clear
5:08 AM 62.6 °F - 62.6 °F 100% 30.19 in 0.5 mi Calm Calm - N/A Fog Fog
5:18 AM 64.4 °F - 64.4 °F 100% 30.19 in 1.2 mi ESE 1.2 mph - N/A   Clear
5:28 AM 64.4 °F - 64.4 °F 100% 30.20 in 4.0 mi Calm Calm - N/A   Clear
5:38 AM 64.4 °F - 64.4 °F 100% 30.20 in 2.5 mi Calm Calm - N/A   Clear
5:48 AM 64.4 °F - 64.4 °F 100% 30.20 in 1.8 mi North 2.3 mph - N/A   Clear
5:58 AM 63.5 °F - 63.5 °F 100% 30.20 in 0.5 mi Calm Calm - N/A Fog Fog
6:18 AM 64.4 °F - 64.4 °F 100% 30.20 in 0.5 mi NNW 3.5 mph - N/A Fog Fog
6:28 AM 62.6 °F - 62.6 °F 100% 30.20 in 1.8 mi NNW 4.6 mph - N/A   Clear
6:38 AM 62.6 °F - 62.6 °F 100% 30.21 in 3.0 mi NW 3.5 mph - N/A   Clear
6:48 AM 62.6 °F - 62.6 °F 100% 30.21 in 3.0 mi NW 3.5 mph - N/A   Clear
6:58 AM 63.0 °F - 63.0 °F 100% 30.22 in 2.5 mi NW 2.3 mph - N/A   Clear
7:28 AM 62.6 °F - 62.6 °F 100% 30.22 in 3.0 mi NNW 3.5 mph - N/A   Clear
7:58 AM 64.9 °F - 64.9 °F 100% 30.23 in 3.0 mi North 1.2 mph - N/A   Partly Cloudy
8:58 AM 74.1 °F - 71.6 °F 92% 30.23 in 10.0 mi NNE 1.2 mph - N/A   Partly Cloudy
9:58 AM 79.5 °F - 71.6 °F 77% 30.23 in 10.0 mi NE 3.5 mph - N/A   Partly Cloudy
10:58 AM 82.4 °F 86.5 °F 70.3 °F 67% 30.22 in 10.0 mi Variable 4.6 mph - N/A   Partly Cloudy
11:58 AM 85.5 °F 88.5 °F 67.8 °F 55% 30.22 in 10.0 mi NE 5.8 mph - N/A   Scattered Clouds
12:58 PM 84.4 °F 86.6 °F 66.2 °F 54% 30.20 in 10.0 mi ESE 5.8 mph - N/A   Mostly Cloudy
1:58 PM 86.5 °F 88.4 °F 65.5 °F 49% 30.18 in 10.0 mi Variable 2.3 mph - N/A   Mostly Cloudy
2:58 PM 89.8 °F 90.0 °F 61.9 °F 39% 30.15 in 10.0 mi East 8.1 mph - N/A   Scattered Clouds
3:58 PM 90.1 °F 91.2 °F 63.5 °F 41% 30.13 in 10.0 mi Variable 5.8 mph - N/A   Mostly Cloudy
4:58 PM 89.6 °F 91.1 °F 64.2 °F 43% 30.12 in 10.0 mi ESE 5.8 mph - N/A   Mostly Cloudy
5:58 PM 86.2 °F 87.9 °F 65.1 °F 49% 30.12 in 10.0 mi SE 3.5 mph - N/A   Mostly Cloudy
6:58 PM 81.5 °F 84.9 °F 69.4 °F 67% 30.11 in 10.0 mi SE 4.6 mph - N/A   Scattered Clouds
7:58 PM 77.5 °F - 68.9 °F 75% 30.12 in 10.0 mi SE 1.2 mph - N/A   Mostly Cloudy
8:58 PM 72.3 °F - 69.1 °F 89% 30.12 in 10.0 mi Calm Calm - N/A   Mostly Cloudy
9:58 PM 70.9 °F - 69.6 °F 96% 30.12 in 10.0 mi East 1.2 mph - N/A   Mostly Cloudy
10:58 PM 70.2 °F - 69.6 °F 98% 30.12 in 10.0 mi Calm Calm - N/A   Mostly Cloudy
11:48 PM 68.0 °F - 68.0 °F 100% 30.11 in 2.5 mi NE 1.2 mph - N/A   Clear
11:58 PM 68.0 °F - 68.0 °F 100% 30.12 in 5.0 mi North 2.3 mph - N/A   Clear